Wind_Speed
26 26 26 26 25 26 27 27 28 27 28 28 29 29 30 30 30 30 30 31 31 32 34 35 36 37 37 38 38 39 40 41 41 42 42 42 42 42 42 42 42 41 41 41
27 26 27 27 25 26 27 28 29 29 28 29 31 31 31 31 32 32 32 32 33 33 34 35 36 37 37 38 39 40 41 42 42 42 42 41 41 41 41 40 39 39 39 39
29 28 29 29 26 26 27 28 29 29 29 30 31 31 32 33 33 34 34 34 34 34 35 35 36 37 38 39 39 40 40 41 42 42 41 41 40 39 38 38 38 38 37 37
32 31 31 29 28 28 28 28 29 30 30 31 32 32 33 34 35 35 35 35 35 35 36 36 37 37 37 38 39 39 40 40 41 41 40 39 38 37 37 37 37 37 37 36
34 34 32 29 29 29 30 30 30 30 31 32 33 33 33 34 34 34 35 35 35 36 36 36 37 37 37 38 38 38 38 39 39 38 37 36 35 35 35 35 35 35 35 34
35 36 35 32 32 32 32 32 31 32 33 34 34 34 33 33 34 34 35 35 35 36 36 36 36 36 36 36 37 37 37 36 35 35 34 33 33 34 34 34 34 34 33 33
36 37 36 34 33 33 34 34 34 34 34 34 34 34 34 34 34 35 35 36 36 36 36 35 35 35 36 36 36 36 35 35 35 34 33 34 34 34 33 33 33 32 32 32
37 37 36 34 35 36 36 36 36 36 36 36 36 36 36 36 37 37 36 36 37 36 36 36 36 36 36 35 35 35 34 34 35 34 33 33 33 33 32 32 31 31 31 31
39 38 37 37 38 38 38 37 37 38 38 38 38 38 38 38 38 38 37 37 37 37 37 36 36 36 35 35 35 34 34 34 33 33 32 32 32 31 31 31 31 30 30 30
41 39 38 39 40 40 40 40 40 40 40 40 40 40 39 39 38 38 38 38 38 37 37 36 35 35 35 35 35 34 33 33 32 32 32 32 32 32 31 31 30 30 29 29
42 41 41 41 41 42 42 42 43 43 42 41 41 40 40 39 39 39 39 39 39 38 37 36 35 35 35 35 34 33 32 31 30 30 31 31 31 30 30 29 29 28 29 29
42 41 43 43 42 43 44 43 43 43 42 41 41 41 41 40 40 39 39 38 38 37 36 35 35 34 34 34 33 32 31 30 30 30 29 29 29 29 29 29 28 28 29 28
43 43 44 43 43 43 43 43 43 43 42 41 40 40 40 39 38 38 37 37 36 36 35 34 34 34 34 33 32 32 31 30 29 29 28 27 27 28 28 28 28 28 28 28
43 43 43 42 42 41 41 42 41 41 41 40 40 40 39 38 37 37 37 36 36 35 35 34 33 33 33 32 31 31 31 30 29 29 28 27 27 27 27 27 28 28 28 28
40 41 41 40 40 39 40 40 39 39 39 39 39 39 39 38 36 36 35 35 35 34 34 33 32 32 32 31 30 30 30 29 29 28 28 28 27 27 27 27 27 27 28 28
38 38 39 39 39 39 39 38 38 37 38 38 38 38 38 38 37 36 36 36 35 35 34 33 32 31 31 30 30 30 29 28 28 28 28 28 28 28 27 27 27 28 28 29
36 36 37 37 37 37 37 38 37 37 37 38 38 37 37 37 36 36 36 36 35 35 34 33 32 31 31 30 30 29 29 28 28 28 28 28 28 28 27 27 27 28 28 29
35 35 35 35 36 36 37 37 38 38 37 37 37 37 37 36 36 35 35 35 35 35 34 33 33 32 31 30 30 29 29 28 28 28 28 28 28 28 28 28 28 28 29 30
33 33 33 34 34 35 36 37 37 37 36 36 36 36 36 36 36 35 35 35 35 34 34 34 34 33 32 31 31 30 29 29 29 29 29 29 29 29 29 29 30 30 30 31
34 34 34 34 34 34 35 35 35 36 35 36 36 36 36 35 35 35 34 34 33 33 33 33 32 32 32 31 31 30 30 29 29 30 30 30 30 30 30 31 32 32 31 31
36 36 35 35 35 35 35 35 34 34 34 34 34 33 34 33 33 33 32 32 32 32 32 32 31 31 31 30 30 30 30 30 31 31 31 31 31 32 32 32 32 32 32 32
35 35 35 35 35 34 34 34 34 34 33 33 32 32 32 32 31 31 31 30 30 30 30 31 30 30 29 30 30 31 32 32 32 32 32 32 33 33 33 33 33 33 33 33
34 34 34 34 34 34 33 33 33 33 32 32 31 31 31 30 30 30 29 29 29 29 30 30 30 30 30 30 31 32 32 33 33 33 33 33 33 34 34 34 34 34 34 34
33 33 33 33 33 33 33 33 32 32 32 31 31 31 30 30 29 29 29 29 29 30 29 29 30 31 31 31 32 33 33 34 34 34 34 34 34 35 35 35 34 34 34 33
33 32 33 33 33 33 33 32 31 31 31 31 31 30 30 30 29 29 28 28 29 29 30 30 30 31 32 32 33 33 34 34 34 35 35 35 34 34 34 34 34 34 33 32
33 32 32 33 33 33 32 32 31 31 31 31 31 30 30 30 30 29 29 29 29 30 30 30 30 30 31 32 32 33 33 33 33 34 34 34 33 33 33 33 32 31 31 30
33 32 32 32 32 32 32 31 31 31 31 31 31 30 30 30 30 30 29 28 28 28 28 28 29 29 30 30 30 31 31 31 31 31 31 31 31 31 31 31 30 30 29 29
Wind_Direction
285 284 282 281 280 279 278 279 280 280 278 278 276 276 276 276 276 277 277 277 277 277 277 277 277 277 278 278 277 278 279 280 280 280 280 280 280 280 280 279 279 277 276 275
285 285 283 282 281 279 278 279 280 279 278 276 275 276 277 277 277 278 279 279 279 279 279 278 278 278 278 279 279 280 280 281 281 281 280 281 281 280 280 279 277 276 275 275
284 283 282 283 283 281 281 280 280 280 279 277 277 277 278 277 277 278 279 280 280 279 279 279 278 279 279 279 280 280 281 281 281 281 281 281 281 280 279 278 277 276 276 275
283 281 281 285 283 281 280 280 280 280 280 279 279 279 279 279 278 278 279 279 279 279 280 280 280 280 280 281 280 281 282 282 282 282 281 280 279 279 279 278 277 277 276 275
282 282 282 282 281 281 281 281 281 281 280 280 281 281 280 279 279 279 278 279 279 280 280 281 281 280 280 281 281 282 283 283 282 281 280 279 278 278 278 278 278 278 277 276
280 280 281 282 281 280 281 281 280 281 282 282 283 282 281 280 280 280 279 279 279 280 281 281 281 281 281 282 282 283 284 283 282 281 279 278 279 279 279 279 278 278 276 275
278 278 279 281 279 278 279 280 280 281 282 282 283 283 282 281 281 281 280 280 280 281 282 282 281 282 283 283 284 283 282 283 282 280 279 279 279 279 279 278 278 277 277 276
276 276 278 278 277 276 278 278 279 280 280 281 281 282 282 281 281 281 281 281 281 282 282 282 282 282 283 284 283 282 282 282 281 280 280 280 279 279 279 278 278 277 277 277
275 276 276 276 275 275 276 277 278 278 279 279 280 281 281 281 281 282 281 282 281 281 282 282 281 282 281 282 283 282 281 281 280 279 280 280 280 278 278 278 278 277 277 277
275 275 275 274 274 275 275 275 276 277 278 278 278 279 281 281 281 281 281 281 281 282 282 281 280 281 281 281 282 282 281 280 278 278 280 280 278 277 277 278 276 276 277 278
275 275 273 273 274 274 275 276 277 277 278 278 278 279 280 280 280 281 282 281 282 282 282 280 279 279 280 281 281 282 281 279 278 278 279 279 278 277 277 277 275 276 278 280
275 274 273 273 274 274 275 277 277 277 277 278 279 279 279 280 280 281 282 282 281 281 281 280 279 279 280 280 281 280 280 279 278 279 279 279 278 277 276 276 275 275 277 279
274 273 273 274 276 277 277 277 277 277 277 277 278 278 278 279 280 280 281 281 280 280 280 279 278 279 279 280 280 279 279 278 276 276 278 278 278 277 276 275 275 275 276 277
273 273 274 275 275 276 276 276 276 277 277 277 278 278 278 279 279 280 280 280 279 278 279 279 278 278 278 278 278 278 277 276 275 275 275 276 278 277 275 274 275 275 275 277
272 274 275 275 274 274 275 276 277 278 278 278 278 277 278 278 278 279 279 279 278 277 277 277 278 277 276 276 277 277 276 274 274 274 275 275 276 277 276 275 274 274 275 277
271 272 274 274 274 274 275 276 277 278 278 278 278 278 277 277 276 277 277 277 276 276 276 276 276 275 273 274 275 275 274 273 273 273 273 274 276 276 276 275 275 275 276 278
271 271 273 274 274 275 276 277 277 278 278 278 278 278 278 277 275 276 276 275 275 275 276 275 275 275 274 272 272 273 273 272 273 272 273 273 274 275 276 276 276 277 278 279
272 273 274 274 273 274 276 277 278 279 279 279 278 279 279 277 276 276 275 274 274 274 274 274 273 273 272 271 270 271 272 271 272 273 273 273 274 275 275 276 276 277 278 280
274 274 274 274 275 276 277 279 279 280 280 280 280 280 278 276 275 275 275 274 273 272 272 271 271 271 270 270 269 269 269 270 272 273 273 273 274 274 275 276 277 278 279 281
273 274 274 274 276 277 278 280 281 280 279 279 280 279 278 277 275 274 274 273 272 272 272 271 270 270 268 268 268 268 269 270 271 272 273 273 274 275 277 278 279 279 279 280
274 274 274 274 275 277 280 281 281 281 280 280 280 280 279 277 276 274 274 273 271 271 271 270 269 268 267 266 267 268 270 271 272 272 272 273 274 276 278 279 280 280 280 281
276 276 276 277 277 279 280 281 281 281 280 279 280 281 280 278 276 275 274 273 271 270 270 270 268 267 267 266 267 269 271 272 272 272 273 274 275 276 277 279 280 281 281 282
277 277 277 278 278 279 281 282 281 281 280 279 280 281 280 278 278 277 274 271 269 269 270 269 267 266 266 267 269 271 272 273 273 273 273 274 276 277 278 279 280 281 281 281
277 277 277 278 279 279 280 279 279 280 281 281 281 281 279 278 278 278 276 272 270 269 270 269 268 267 268 269 270 272 274 275 274 274 275 276 277 278 278 279 280 280 280 280
279 279 279 279 279 279 279 278 278 279 280 280 281 281 279 278 279 278 276 274 273 271 271 271 271 270 270 271 272 273 274 275 274 275 276 278 279 279 278 278 279 279 278 278
278 279 279 279 279 279 278 278 278 279 279 280 280 279 278 277 278 278 276 275 274 273 272 271 271 272 273 273 273 274 275 275 275 275 277 278 279 279 279 279 278 277 276 276
278 279 280 281 281 280 279 278 278 279 279 279 279 278 277 277 276 276 276 275 274 274 273 272 272 273 274 275 275 276 276 276 276 276 277 278 279 279 279 278 276 275 275 276
Height
5674 5673 5671 5670 5670 5668 5667 5665 5664 5664 5663 5662 5660 5658 5657 5656 5655 5654 5653 5651 5650 5649 5647 5646 5644 5643 5641 5639 5638 5636 5634 5632 5630 5628 5626 5624 5622 5621 5619 5617 5615 5613 5612 5611
5666 5665 5662 5662 5662 5661 5659 5658 5656 5655 5655 5653 5650 5649 5648 5647 5646 5644 5643 5642 5640 5638 5637 5635 5633 5632 5630 5628 5626 5624 5622 5620 5618 5616 5614 5612 5610 5608 5606 5604 5603 5601 5600 5599
5657 5656 5654 5655 5655 5653 5651 5650 5648 5646 5646 5643 5642 5641 5639 5638 5636 5635 5633 5632 5630 5628 5626 5625 5623 5621 5619 5617 5615 5613 5611 5609 5606 5604 5602 5600 5598 5596 5595 5593 5592 5590 5589 5588
5647 5647 5646 5649 5646 5644 5642 5640 5639 5637 5636 5634 5633 5631 5630 5628 5626 5624 5623 5621 5619 5617 5615 5613 5611 5609 5607 5605 5603 5601 5599 5597 5594 5592 5590 5588 5587 5585 5584 5582 5581 5579 5578 5577
5638 5636 5636 5639 5636 5634 5632 5631 5629 5627 5625 5624 5622 5621 5620 5617 5615 5614 5612 5610 5608 5606 5604 5602 5600 5598 5595 5593 5591 5589 5587 5585 5583 5581 5579 5577 5576 5574 5573 5572 5570 5569 5568 5566
5628 5626 5626 5629 5626 5623 5622 5621 5620 5617 5615 5613 5612 5611 5611 5607 5605 5603 5601 5599 5597 5595 5593 5591 5589 5586 5584 5582 5580 5578 5576 5574 5571 5570 5568 5567 5566 5564 5563 5561 5560 5559 5558 5557
5617 5615 5615 5617 5615 5613 5613 5612 5609 5606 5604 5603 5601 5600 5599 5596 5594 5592 5590 5588 5586 5584 5582 5580 5577 5575 5573 5571 5569 5567 5565 5563 5561 5559 5558 5557 5555 5554 5553 5552 5550 5549 5548 5547
5606 5605 5608 5605 5603 5602 5601 5599 5597 5595 5593 5591 5590 5588 5586 5585 5583 5581 5579 5577 5575 5572 5571 5568 5566 5564 5562 5560 5558 5556 5554 5552 5551 5549 5548 5546 5545 5544 5543 5542 5541 5540 5538 5537
5596 5597 5595 5593 5591 5589 5588 5586 5585 5583 5582 5580 5578 5576 5575 5573 5571 5569 5567 5565 5563 5561 5559 5557 5555 5553 5551 5549 5547 5545 5544 5542 5540 5539 5537 5536 5535 5534 5533 5532 5531 5530 5529 5528
5582 5584 5582 5580 5578 5576 5575 5574 5572 5571 5569 5567 5566 5564 5563 5561 5559 5557 5555 5553 5551 5549 5547 5545 5543 5541 5539 5538 5536 5535 5533 5531 5530 5529 5528 5526 5525 5524 5523 5522 5521 5520 5519 5518
5569 5570 5568 5568 5565 5564 5562 5561 5559 5558 5557 5555 5553 5552 5550 5549 5547 5545 5543 5541 5539 5537 5535 5533 5532 5530 5528 5527 5525 5524 5522 5521 5520 5519 5518 5516 5515 5514 5513 5512 5511 5511 5510 5509
5556 5556 5553 5553 5553 5550 5549 5548 5546 5545 5544 5542 5540 5539 5537 5536 5534 5533 5531 5529 5527 5525 5523 5522 5520 5519 5517 5516 5515 5513 5512 5511 5510 5509 5508 5507 5505 5504 5503 5503 5502 5501 5500 5499
5541 5541 5538 5538 5538 5537 5535 5534 5533 5531 5530 5529 5528 5526 5525 5523 5522 5521 5519 5517 5515 5514 5512 5511 5509 5508 5507 5506 5504 5503 5502 5501 5500 5499 5498 5497 5496 5495 5494 5493 5492 5491 5490 5489
5527 5526 5525 5525 5524 5523 5522 5521 5519 5518 5517 5516 5515 5513 5512 5511 5510 5508 5507 5505 5504 5502 5501 5500 5498 5497 5496 5495 5494 5493 5492 5491 5490 5490 5489 5488 5487 5486 5485 5484 5483 5482 5481 5480
5515 5513 5512 5512 5511 5510 5509 5508 5507 5506 5505 5504 5502 5501 5500 5499 5498 5496 5495 5493 5492 5491 5490 5488 5487 5486 5485 5485 5484 5483 5482 5481 5480 5480 5479 5479 5478 5477 5476 5475 5474 5473 5472 5471
5502 5501 5500 5499 5498 5498 5496 5495 5495 5494 5493 5491 5490 5489 5488 5487 5486 5485 5483 5482 5481 5480 5479 5477 5476 5475 5474 5474 5473 5473 5472 5471 5471 5470 5470 5469 5469 5468 5467 5466 5465 5464 5463 5461
5489 5489 5488 5487 5486 5485 5484 5483 5482 5482 5480 5479 5478 5477 5475 5474 5473 5473 5471 5470 5469 5468 5467 5466 5465 5465 5464 5463 5463 5463 5462 5462 5461 5461 5460 5460 5459 5458 5457 5456 5455 5454 5453 5452
5477 5477 5476 5475 5474 5473 5473 5471 5470 5469 5468 5467 5466 5464 5463 5462 5461 5460 5459 5458 5457 5457 5456 5455 5454 5454 5453 5453 5453 5453 5452 5452 5452 5451 5451 5450 5449 5449 5448 5447 5446 5444 5443 5442
5466 5465 5465 5464 5463 5462 5461 5460 5458 5457 5456 5454 5453 5452 5451 5450 5449 5448 5447 5446 5445 5445 5444 5443 5443 5443 5443 5442 5443 5443 5442 5442 5442 5441 5441 5440 5440 5439 5438 5437 5436 5434 5433 5432
5454 5454 5453 5452 5452 5451 5449 5448 5447 5445 5444 5442 5441 5439 5438 5438 5436 5436 5435 5435 5434 5433 5432 5432 5432 5432 5432 5432 5432 5432 5432 5432 5432 5431 5431 5430 5430 5429 5428 5427 5425 5424 5422 5421
5443 5442 5442 5441 5440 5439 5438 5437 5435 5433 5432 5430 5429 5428 5427 5426 5425 5424 5423 5423 5423 5422 5421 5421 5421 5421 5421 5421 5422 5422 5422 5422 5421 5421 5421 5420 5419 5419 5418 5416 5415 5413 5412 5410
5432 5431 5430 5429 5428 5427 5427 5425 5424 5422 5421 5419 5418 5417 5415 5414 5414 5413 5413 5412 5412 5411 5411 5410 5410 5410 5410 5411 5411 5411 5411 5411 5411 5410 5410 5409 5409 5408 5407 5406 5404 5403 5401 5399
5420 5419 5419 5418 5417 5416 5415 5414 5413 5411 5410 5408 5407 5406 5404 5403 5403 5402 5402 5402 5401 5401 5400 5400 5400 5400 5400 5400 5401 5401 5401 5400 5400 5400 5399 5398 5398 5397 5395 5394 5393 5392 5390 5388
5410 5409 5408 5406 5405 5404 5404 5403 5402 5400 5399 5398 5397 5395 5394 5393 5392 5392 5391 5391 5390 5390 5390 5390 5390 5390 5390 5390 5390 5390 5389 5389 5389 5388 5388 5387 5386 5385 5384 5383 5381 5380 5379 5377
5399 5398 5397 5396 5394 5393 5392 5391 5390 5390 5389 5387 5386 5385 5383 5382 5382 5382 5381 5380 5380 5380 5380 5380 5379 5379 5379 5379 5379 5379 5378 5378 5377 5377 5377 5376 5375 5374 5372 5371 5370 5369 5367 5366
5388 5387 5386 5385 5383 5382 5381 5380 5379 5379 5378 5377 5376 5375 5374 5372 5371 5371 5371 5370 5370 5370 5370 5370 5369 5369 5369 5368 5368 5368 5367 5367 5366 5366 5365 5364 5363 5362 5361 5360 5359 5357 5357 5356
5377 5376 5375 5374 5373 5371 5370 5369 5369 5368 5367 5366 5365 5365 5363 5362 5362 5361 5361 5361 5360 5360 5360 5359 5359 5359 5359 5358 5358 5357 5356 5356 5355 5354 5354 5353 5352 5351 5350 5349 5348 5347 5346 5346